| time (UTC) | temp F | wind direction | speed MPH | gust MPH | rain 1hr in | rain 24hr in | rain mn in | humidity % | barometer mb |
| 20260508172023 | 66 | 193 | 1.0 | 3.0 | 0.00 | 0.00 | 0.00 | 61 | 1034.1 |
| 20260508171522 | 66 | 182 | 1.0 | 4.0 | 0.00 | 0.00 | 0.00 | 60 | 1034.5 |
| 20260508171022 | 65 | 187 | 1.0 | 3.0 | 0.00 | 0.00 | 0.00 | 60 | 1033.4 |
| 20260508170522 | 65 | 188 | 1.0 | 3.0 | 0.00 | 0.00 | 0.00 | 59 | 1032.5 |
| 20260508170024 | 65 | 175 | 2.0 | 6.0 | 0.00 | 0.00 | 0.00 | 58 | 1030.2 |
| 20260508165524 | 66 | 196 | 1.0 | 4.0 | 0.00 | 0.00 | 0.00 | 59 | 1032.3 |
| 20260508165106 | 65 | 199 | 2.0 | 3.0 | 0.00 | 0.00 | 0.00 | 59 | 1031.5 |
| 20260508164522 | 65 | 213 | 1.0 | 3.0 | 0.00 | 0.00 | 0.00 | 61 | 1034.1 |
| 20260508164024 | 64 | 162 | 2.0 | 5.0 | 0.00 | 0.00 | 0.00 | 62 | 1036.5 |
| 20260508163524 | 64 | 204 | 1.0 | 4.0 | 0.00 | 0.00 | 0.00 | 62 | 1036.6 |
| 20260508163023 | 63 | 223 | 1.0 | 6.0 | 0.00 | 0.00 | 0.00 | 63 | 1037.0 |
| 20260508162521 | 63 | 218 | 2.0 | 7.0 | 0.00 | 0.00 | 0.00 | 63 | 1037.0 |
| 20260508162020 | 63 | 208 | 2.0 | 3.0 | 0.00 | 0.00 | 0.00 | 63 | 1037.2 |
| 20260508161600 | 63 | 200 | 2.0 | 5.0 | 0.00 | 0.00 | 0.00 | 62 | 1036.6 |
| 20260508161023 | 63 | 208 | 2.0 | 6.0 | 0.00 | 0.00 | 0.00 | 63 | 1037.2 |
| 20260508160524 | 63 | 201 | 2.0 | 7.0 | 0.00 | 0.00 | 0.00 | 63 | 1037.1 |
| 20260508160024 | 63 | 208 | 2.0 | 6.0 | 0.00 | 0.00 | 0.00 | 62 | 1037.3 |
| 20260508155524 | 63 | 194 | 3.0 | 5.0 | 0.00 | 0.00 | 0.00 | 62 | 1036.9 |
| 20260508155024 | 63 | 200 | 3.0 | 6.0 | 0.00 | 0.00 | 0.00 | 62 | 1036.9 |
| 20260508154523 | 63 | 209 | 2.0 | 6.0 | 0.00 | 0.00 | 0.00 | 63 | 1037.5 |
| 20260508154021 | 63 | 198 | 2.0 | 5.0 | 0.00 | 0.00 | 0.00 | 62 | 1036.6 |
| 20260508153541 | 63 | 205 | 2.0 | 6.0 | 0.00 | 0.00 | 0.00 | 62 | 1036.5 |
| 20260508153043 | 63 | 205 | 3.0 | 6.0 | 0.00 | 0.00 | 0.00 | 62 | 1036.2 |
| 20260508152522 | 63 | 202 | 2.0 | 6.0 | 0.00 | 0.00 | 0.00 | 61 | 1035.9 |
| 20260508152022 | 63 | 213 | 2.0 | 6.0 | 0.00 | 0.00 | 0.00 | 61 | 1035.9 |
| 20260508151522 | 63 | 205 | 3.0 | 8.0 | 0.00 | 0.00 | 0.00 | 61 | 1035.4 |
| 20260508151027 | 63 | 201 | 3.0 | 5.0 | 0.00 | 0.00 | 0.00 | 61 | 1035.5 |
| 20260508150523 | 63 | 204 | 2.0 | 6.0 | 0.00 | 0.00 | 0.00 | 61 | 1036.1 |
| 20260508150022 | 63 | 201 | 2.0 | 5.0 | 0.00 | 0.00 | 0.00 | 60 | 1035.2 |
| 20260508145542 | 63 | 212 | 3.0 | 6.0 | 0.00 | 0.00 | 0.00 | 60 | 1035.0 |
| 20260508145022 | 63 | 205 | 3.0 | 7.0 | 0.00 | 0.00 | 0.00 | 60 | 1034.1 |
| 20260508144542 | 63 | 202 | 3.0 | 7.0 | 0.00 | 0.00 | 0.00 | 59 | 1031.9 |
| 20260508144023 | 64 | 202 | 3.0 | 8.0 | 0.00 | 0.00 | 0.00 | 59 | 1030.9 |
| 20260508143603 | 64 | 206 | 3.0 | 6.0 | 0.00 | 0.00 | 0.00 | 59 | 1031.8 |
| 20260508143024 | 65 | 189 | 2.0 | 4.0 | 0.00 | 0.00 | 0.00 | 58 | 1028.6 |
| 20260508142524 | 65 | 215 | 2.0 | 4.0 | 0.00 | 0.00 | 0.00 | 56 | 1024.0 |
| 20260508142023 | 65 | 213 | 2.0 | 9.0 | 0.00 | 0.00 | 0.00 | 56 | 1024.1 |
| 20260508141522 | 65 | 192 | 3.0 | 6.0 | 0.00 | 0.00 | 0.00 | 57 | 1024.9 |
| 20260508141022 | 64 | 191 | 3.0 | 6.0 | 0.00 | 0.00 | 0.00 | 57 | 1025.8 |
| 20260508140522 | 64 | 161 | 3.0 | 8.0 | 0.00 | 0.00 | 0.00 | 58 | 1027.3 |
| 20260508140022 | 63 | 193 | 3.0 | 7.0 | 0.00 | 0.00 | 0.00 | 59 | 1028.7 |
| 20260508135522 | 63 | 195 | 2.0 | 4.0 | 0.00 | 0.00 | 0.00 | 61 | 1032.8 |
| 20260508135032 | 62 | 199 | 2.0 | 4.0 | 0.00 | 0.00 | 0.00 | 63 | 1036.7 |
| 20260508134526 | 61 | 208 | 2.0 | 7.0 | 0.00 | 0.00 | 0.00 | 65 | 1037.0 |
| 20260508134031 | 60 | 171 | 2.0 | 3.0 | 0.00 | 0.00 | 0.00 | 66 | 1036.4 |
| 20260508133525 | 59 | 197 | 2.0 | 6.0 | 0.00 | 0.00 | 0.00 | 67 | 1034.8 |
| 20260508133032 | 59 | 211 | 2.0 | 2.0 | 0.00 | 0.00 | 0.00 | 68 | 1033.3 |
| 20260508132554 | 58 | 210 | 1.0 | 2.0 | 0.00 | 0.00 | 0.00 | 69 | 1032.1 |
| 20260508132053 | 58 | 215 | 2.0 | 5.0 | 0.00 | 0.00 | 0.00 | 70 | 1030.0 |
| 20260508131552 | 57 | 212 | 1.0 | 5.0 | 0.00 | 0.00 | 0.00 | 72 | 1029.0 |
| 20260508131032 | 57 | 206 | 1.0 | 1.0 | 0.00 | 0.00 | 0.00 | 72 | 1029.0 |
| 20260508130534 | 56 | 195 | 1.0 | 2.0 | 0.00 | 0.00 | 0.00 | 73 | 1028.9 |
| 20260508130032 | 55 | 200 | 1.0 | 4.0 | 0.00 | 0.00 | 0.00 | 74 | 1029.0 |
| 20260508125535 | 55 | 196 | 2.0 | 4.0 | 0.00 | 0.00 | 0.00 | 75 | 1029.3 |
| 20260508125032 | 54 | 187 | 2.0 | 4.0 | 0.00 | 0.00 | 0.00 | 75 | 1029.4 |
| 20260508124532 | 54 | 61 | 2.0 | 4.0 | 0.00 | 0.00 | 0.00 | 75 | 1029.7 |
| 20260508124035 | 54 | 208 | 1.0 | 3.0 | 0.00 | 0.00 | 0.00 | 75 | 1029.4 |
| 20260508123554 | 54 | 205 | 1.0 | 2.0 | 0.00 | 0.00 | 0.00 | 75 | 1029.3 |
| 20260508123032 | 53 | 195 | 2.0 | 4.0 | 0.00 | 0.00 | 0.00 | 75 | 1029.3 |
| 20260508122533 | 53 | 204 | 1.0 | 2.0 | 0.00 | 0.00 | 0.00 | 75 | 1029.2 |
| 20260508122033 | 53 | 206 | 1.0 | 3.0 | 0.00 | 0.00 | 0.00 | 76 | 1030.0 |
| 20260508121535 | 53 | 203 | 1.0 | 2.0 | 0.00 | 0.00 | 0.00 | 75 | 1029.7 |
| 20260508121034 | 52 | 209 | 1.0 | 3.0 | 0.00 | 0.00 | 0.00 | 75 | 1029.7 |
| 20260508120533 | 52 | 212 | 1.0 | 3.0 | 0.00 | 0.00 | 0.00 | 75 | 1029.7 |
| 20260508120035 | 52 | 200 | 1.0 | 3.0 | 0.00 | 0.00 | 0.00 | 76 | 1030.0 |
| 20260508115534 | 51 | 201 | 1.0 | 3.0 | 0.00 | 0.00 | 0.00 | 76 | 1030.4 |
| 20260508115116 | 51 | 215 | 1.0 | 3.0 | 0.00 | 0.00 | 0.00 | 76 | 1030.2 |
| 20260508114553 | 51 | 221 | 2.0 | 3.0 | 0.00 | 0.00 | 0.00 | 76 | 1030.3 |
| 20260508114034 | 51 | 224 | 2.0 | 3.0 | 0.00 | 0.00 | 0.00 | 76 | 1030.3 |
| 20260508113534 | 51 | 225 | 1.0 | 3.0 | 0.00 | 0.00 | 0.00 | 77 | 1030.3 |
| 20260508113054 | 51 | 233 | 3.0 | 4.0 | 0.00 | 0.00 | 0.00 | 76 | 1030.2 |
| 20260508112533 | 51 | 223 | 2.0 | 3.0 | 0.00 | 0.00 | 0.00 | 76 | 1029.9 |
| 20260508112034 | 51 | 225 | 2.0 | 3.0 | 0.00 | 0.00 | 0.00 | 76 | 1029.7 |
| 20260508111536 | 51 | 228 | 2.0 | 3.0 | 0.00 | 0.00 | 0.00 | 75 | 1029.4 |
| 20260508111036 | 50 | 216 | 2.0 | 3.0 | 0.00 | 0.00 | 0.00 | 75 | 1029.4 |
| 20260508110537 | 50 | 215 | 1.0 | 3.0 | 0.00 | 0.00 | 0.00 | 75 | 1029.2 |
| 20260508110035 | 50 | 218 | 1.0 | 3.0 | 0.00 | 0.00 | 0.00 | 75 | 1029.1 |
| 20260508105557 | 50 | 215 | 1.0 | 3.0 | 0.00 | 0.00 | 0.00 | 75 | 1029.1 |
| 20260508105035 | 50 | 218 | 2.0 | 3.0 | 0.00 | 0.00 | 0.00 | 75 | 1029.1 |
| 20260508104522 | 50 | 219 | 1.0 | 3.0 | 0.00 | 0.00 | 0.00 | 75 | 1029.1 |
| 20260508104102 | 50 | 223 | 1.0 | 3.0 | 0.00 | 0.00 | 0.00 | 75 | 1029.2 |
| 20260508103521 | 49 | 213 | 1.0 | 2.0 | 0.00 | 0.00 | 0.00 | 75 | 1029.5 |
| 20260508103037 | 49 | 211 | 1.0 | 2.0 | 0.00 | 0.00 | 0.00 | 76 | 1030.0 |
| 20260508102536 | 49 | 213 | 1.0 | 2.0 | 0.00 | 0.00 | 0.00 | 77 | 1030.2 |
| 20260508102136 | 49 | 215 | 1.0 | 2.0 | 0.00 | 0.00 | 0.00 | 76 | 1029.6 |
| 20260508101536 | 49 | 282 | 1.0 | 3.0 | 0.00 | 0.00 | 0.00 | 75 | 1029.5 |
| 20260508101037 | 50 | 230 | 1.0 | 2.0 | 0.00 | 0.00 | 0.00 | 75 | 1029.4 |
| 20260508100537 | 50 | 233 | 2.0 | 3.0 | 0.00 | 0.00 | 0.00 | 75 | 1029.4 |
| 20260508100036 | 50 | 228 | 1.0 | 3.0 | 0.00 | 0.00 | 0.00 | 75 | 1029.4 |
| 20260508095535 | 50 | 229 | 1.0 | 3.0 | 0.00 | 0.00 | 0.00 | 75 | 1029.4 |
| 20260508095021 | 50 | 219 | 1.0 | 2.0 | 0.00 | 0.00 | 0.00 | 75 | 1029.4 |
| 20260508094522 | 50 | 226 | 2.0 | 3.0 | 0.00 | 0.00 | 0.00 | 74 | 1029.5 |
| 20260508094022 | 49 | 221 | 1.0 | 2.0 | 0.00 | 0.00 | 0.00 | 74 | 1029.5 |
| 20260508093543 | 49 | 222 | 2.0 | 3.0 | 0.00 | 0.00 | 0.00 | 74 | 1029.5 |
| 20260508093041 | 49 | 224 | 1.0 | 3.0 | 0.00 | 0.00 | 0.00 | 75 | 1029.7 |
| 20260508092522 | 49 | 227 | 1.0 | 2.0 | 0.00 | 0.00 | 0.00 | 75 | 1029.8 |
| 20260508092021 | 49 | 220 | 1.0 | 2.0 | 0.00 | 0.00 | 0.00 | 75 | 1029.7 |
| 20260508091542 | 49 | 226 | 1.0 | 3.0 | 0.00 | 0.00 | 0.00 | 75 | 1029.7 |
| 20260508091025 | 49 | 228 | 1.0 | 3.0 | 0.00 | 0.00 | 0.00 | 75 | 1029.7 |
| 20260508090522 | 49 | 206 | 1.0 | 3.0 | 0.00 | 0.00 | 0.00 | 75 | 1029.8 |
| 20260508090022 | 49 | 206 | 1.0 | 3.0 | 0.00 | 0.00 | 0.00 | 76 | 1030.0 |
| 20260508085521 | 49 | 219 | 1.0 | 2.0 | 0.00 | 0.00 | 0.00 | 76 | 1030.4 |
| 20260508085023 | 49 | 213 | 1.0 | 2.0 | 0.00 | 0.00 | 0.00 | 76 | 1030.0 |
| 20260508084522 | 49 | 216 | 1.0 | 2.0 | 0.00 | 0.00 | 0.00 | 76 | 1030.3 |
| 20260508084023 | 49 | 220 | 0.0 | 1.0 | 0.00 | 0.00 | 0.00 | 76 | 1029.9 |
| 20260508083522 | 49 | 222 | 1.0 | 2.0 | 0.00 | 0.00 | 0.00 | 75 | 1029.8 |
| 20260508083024 | 49 | 221 | 1.0 | 1.0 | 0.00 | 0.00 | 0.00 | 75 | 1030.0 |
| 20260508082539 | 49 | 216 | 1.0 | 2.0 | 0.00 | 0.00 | 0.00 | 77 | 1030.8 |
| 20260508082025 | 49 | 223 | 1.0 | 3.0 | 0.00 | 0.00 | 0.00 | 77 | 1030.6 |
| 20260508081523 | 49 | 247 | 2.0 | 3.0 | 0.00 | 0.00 | 0.00 | 76 | 1030.3 |
| 20260508081022 | 49 | 245 | 2.0 | 3.0 | 0.00 | 0.00 | 0.00 | 76 | 1030.3 |
| 20260508080522 | 50 | 291 | 2.0 | 3.0 | 0.00 | 0.00 | 0.00 | 75 | 1030.2 |
| 20260508080022 | 50 | 244 | 2.0 | 3.0 | 0.00 | 0.00 | 0.00 | 74 | 1030.2 |
| 20260508075523 | 50 | 240 | 3.0 | 3.0 | 0.00 | 0.00 | 0.00 | 74 | 1030.4 |
| 20260508075025 | 50 | 230 | 2.0 | 3.0 | 0.00 | 0.00 | 0.00 | 74 | 1030.5 |
| 20260508074523 | 50 | 230 | 2.0 | 3.0 | 0.00 | 0.00 | 0.00 | 74 | 1030.5 |
| 20260508074025 | 50 | 227 | 2.0 | 3.0 | 0.00 | 0.00 | 0.00 | 74 | 1030.4 |
| 20260508073524 | 50 | 239 | 2.0 | 3.0 | 0.00 | 0.00 | 0.00 | 75 | 1030.6 |
| 20260508073024 | 50 | 253 | 2.0 | 3.0 | 0.00 | 0.00 | 0.00 | 75 | 1030.7 |
| 20260508072525 | 50 | 237 | 1.0 | 3.0 | 0.00 | 0.00 | 0.00 | 75 | 1030.9 |
| 20260508072105 | 50 | 229 | 3.0 | 3.0 | 0.00 | 0.00 | 0.00 | 74 | 1031.5 |
| 20260508071544 | 50 | 354 | 3.0 | 3.0 | 0.00 | 0.00 | 0.00 | 73 | 1032.2 |
| 20260508071026 | 50 | 315 | 3.0 | 3.0 | 0.00 | 0.00 | 0.00 | 73 | 1032.3 |
| 20260508070524 | 50 | 234 | 3.0 | 3.0 | 0.00 | 0.00 | 0.00 | 72 | 1033.1 |
| 20260508070024 | 51 | 239 | 3.0 | 3.0 | 0.00 | 0.00 | 0.00 | 72 | 1033.2 |
| 20260508065525 | 51 | 235 | 3.0 | 3.0 | 0.00 | 0.00 | 0.00 | 72 | 1033.5 |
| 20260508065025 | 51 | 248 | 3.0 | 3.0 | 0.00 | 0.00 | 0.00 | 71 | 1034.2 |
| 20260508064541 | 51 | 316 | 3.0 | 3.0 | 0.00 | 0.00 | 0.00 | 71 | 1034.3 |
| 20260508064044 | 51 | 19 | 3.0 | 4.0 | 0.00 | 0.00 | 0.00 | 72 | 1033.6 |
| 20260508063521 | 51 | 262 | 3.0 | 4.0 | 0.00 | 0.00 | 0.00 | 72 | 1033.3 |
| 20260508063022 | 51 | 242 | 3.0 | 3.0 | 0.00 | 0.00 | 0.00 | 72 | 1033.9 |
| 20260508062523 | 51 | 267 | 3.0 | 3.0 | 0.00 | 0.00 | 0.00 | 72 | 1033.9 |
| 20260508062021 | 51 | 247 | 3.0 | 3.0 | 0.00 | 0.00 | 0.00 | 70 | 1036.3 |
| 20260508061542 | 51 | 256 | 3.0 | 3.0 | 0.00 | 0.00 | 0.00 | 69 | 1037.6 |
| 20260508061043 | 51 | 241 | 3.0 | 3.0 | 0.00 | 0.00 | 0.00 | 69 | 1038.1 |
| 20260508060523 | 51 | 270 | 3.0 | 3.0 | 0.00 | 0.00 | 0.00 | 70 | 1036.9 |
| 20260508060022 | 52 | 359 | 3.0 | 4.0 | 0.00 | 0.00 | 0.00 | 69 | 1037.7 |
| 20260508055523 | 52 | 240 | 3.0 | 3.0 | 0.00 | 0.00 | 0.00 | 69 | 1038.7 |
| 20260508055022 | 52 | 235 | 3.0 | 3.0 | 0.00 | 0.00 | 0.00 | 67 | 1039.7 |
| 20260508054521 | 52 | 236 | 3.0 | 3.0 | 0.00 | 0.00 | 0.00 | 67 | 1040.0 |
| 20260508054023 | 53 | 232 | 3.0 | 3.0 | 0.00 | 0.00 | 0.00 | 67 | 1040.1 |
| 20260508053542 | 53 | 260 | 3.0 | 3.0 | 0.00 | 0.00 | 0.00 | 66 | 1040.1 |
| 20260508053025 | 53 | 238 | 3.0 | 4.0 | 0.00 | 0.00 | 0.00 | 66 | 1040.1 |
| 20260508052523 | 53 | 230 | 2.0 | 3.0 | 0.00 | 0.00 | 0.00 | 65 | 1040.0 |
| 20260508052023 | 54 | 229 | 2.0 | 3.0 | 0.00 | 0.00 | 0.00 | 64 | 1038.4 |
| 20260508051523 | 54 | 247 | 1.0 | 3.0 | 0.00 | 0.00 | 0.00 | 64 | 1038.3 |
| 20260508051024 | 54 | 218 | 1.0 | 3.0 | 0.00 | 0.00 | 0.00 | 63 | 1037.2 |
| 20260508050523 | 55 | 218 | 1.0 | 3.0 | 0.00 | 0.00 | 0.00 | 61 | 1034.2 |
| 20260508050041 | 55 | 42 | 2.0 | 5.0 | 0.00 | 0.00 | 0.00 | 61 | 1033.4 |
| 20260508045521 | 55 | 33 | 2.0 | 4.0 | 0.00 | 0.00 | 0.00 | 60 | 1031.0 |
| 20260508045020 | 55 | 227 | 1.0 | 4.0 | 0.00 | 0.00 | 0.00 | 59 | 1028.5 |
| 20260508044522 | 55 | 211 | 1.0 | 3.0 | 0.00 | 0.00 | 0.00 | 58 | 1027.7 |
| 20260508044024 | 55 | 184 | 2.0 | 5.0 | 0.00 | 0.00 | 0.00 | 59 | 1029.7 |
| 20260508043526 | 54 | 159 | 2.0 | 5.0 | 0.00 | 0.00 | 0.00 | 60 | 1031.8 |
| 20260508043045 | 54 | 184 | 1.0 | 4.0 | 0.00 | 0.00 | 0.00 | 62 | 1033.6 |
| 20260508042524 | 55 | 200 | 1.0 | 4.0 | 0.00 | 0.00 | 0.00 | 62 | 1036.0 |
| 20260508042021 | 55 | 211 | 1.0 | 4.0 | 0.00 | 0.00 | 0.00 | 62 | 1036.0 |
| 20260508041522 | 55 | 34 | 2.0 | 4.0 | 0.00 | 0.00 | 0.00 | 61 | 1034.5 |
| 20260508041021 | 55 | 31 | 2.0 | 4.0 | 0.00 | 0.00 | 0.00 | 60 | 1031.9 |
| 20260508040521 | 55 | 304 | 1.0 | 4.0 | 0.00 | 0.00 | 0.00 | 59 | 1029.9 |
| 20260508040022 | 55 | 205 | 2.0 | 5.0 | 0.00 | 0.00 | 0.00 | 58 | 1027.4 |
| 20260508035521 | 55 | 220 | 1.0 | 5.0 | 0.00 | 0.00 | 0.00 | 59 | 1030.3 |
| 20260508035022 | 55 | 214 | 1.0 | 4.0 | 0.00 | 0.00 | 0.00 | 62 | 1035.4 |
| 20260508034521 | 54 | 93 | 1.0 | 4.0 | 0.00 | 0.00 | 0.00 | 62 | 1036.1 |
| 20260508034042 | 54 | 201 | 1.0 | 4.0 | 0.00 | 0.00 | 0.00 | 63 | 1036.3 |
| 20260508033523 | 54 | 151 | 1.0 | 4.0 | 0.00 | 0.00 | 0.00 | 65 | 1039.2 |
| 20260508033024 | 54 | 215 | 1.0 | 4.0 | 0.00 | 0.00 | 0.00 | 66 | 1040.0 |
| 20260508032523 | 54 | 214 | 1.0 | 5.0 | 0.00 | 0.00 | 0.00 | 65 | 1039.5 |
| 20260508032103 | 54 | 214 | 1.0 | 4.0 | 0.00 | 0.00 | 0.00 | 65 | 1039.8 |
| 20260508031522 | 54 | 215 | 1.0 | 3.0 | 0.00 | 0.00 | 0.00 | 65 | 1039.9 |
| 20260508031022 | 55 | 215 | 1.0 | 1.0 | 0.00 | 0.00 | 0.00 | 65 | 1040.1 |
| 20260508030522 | 55 | 216 | 1.0 | 4.0 | 0.00 | 0.00 | 0.00 | 63 | 1038.2 |
| 20260508030025 | 55 | 186 | 1.0 | 4.0 | 0.00 | 0.00 | 0.00 | 63 | 1038.6 |
| 20260508025523 | 55 | 240 | 1.0 | 4.0 | 0.00 | 0.00 | 0.00 | 63 | 1038.0 |
| 20260508025023 | 56 | 29 | 1.0 | 4.0 | 0.00 | 0.00 | 0.00 | 62 | 1036.7 |
| 20260508024523 | 56 | 48 | 2.0 | 4.0 | 0.00 | 0.00 | 0.00 | 63 | 1038.4 |
| 20260508024024 | 56 | 29 | 2.0 | 5.0 | 0.00 | 0.00 | 0.00 | 62 | 1035.9 |
| 20260508023523 | 56 | 213 | 1.0 | 5.0 | 0.00 | 0.00 | 0.00 | 61 | 1034.8 |
| 20260508023024 | 56 | 218 | 1.0 | 3.0 | 0.00 | 0.00 | 0.00 | 60 | 1033.0 |
| 20260508022605 | 57 | 209 | 1.0 | 5.0 | 0.00 | 0.00 | 0.00 | 59 | 1030.4 |
| 20260508022024 | 57 | 32 | 2.0 | 5.0 | 0.00 | 0.00 | 0.00 | 59 | 1029.8 |
| 20260508021520 | 57 | 26 | 2.0 | 5.0 | 0.00 | 0.00 | 0.00 | 59 | 1031.2 |
| 20260508021021 | 57 | 234 | 1.0 | 5.0 | 0.00 | 0.00 | 0.00 | 58 | 1028.3 |
| 20260508020541 | 58 | 222 | 1.0 | 5.0 | 0.00 | 0.00 | 0.00 | 56 | 1024.8 |
| 20260508020023 | 58 | 224 | 1.0 | 5.0 | 0.00 | 0.00 | 0.00 | 55 | 1024.2 |
| 20260508015523 | 58 | 224 | 0.0 | 4.0 | 0.00 | 0.00 | 0.00 | 56 | 1024.2 |
| 20260508015023 | 59 | 224 | 0.0 | 0.0 | 0.00 | 0.00 | 0.00 | 55 | 1023.3 |
| 20260508014523 | 59 | 224 | 0.0 | 1.0 | 0.00 | 0.00 | 0.00 | 53 | 1020.6 |
| 20260508014025 | 59 | 224 | 0.0 | 1.0 | 0.00 | 0.00 | 0.00 | 52 | 1019.0 |
| 20260508013602 | 60 | 224 | 0.0 | 1.0 | 0.00 | 0.00 | 0.00 | 52 | 1019.3 |
| 20260508013043 | 60 | 224 | 0.0 | 1.0 | 0.00 | 0.00 | 0.00 | 51 | 1018.8 |
| 20260508012524 | 60 | 223 | 0.0 | 1.0 | 0.00 | 0.00 | 0.00 | 50 | 1017.6 |
| 20260508012041 | 61 | 224 | 0.0 | 1.0 | 0.00 | 0.00 | 0.00 | 50 | 1017.2 |
| 20260508011522 | 61 | 224 | 0.0 | 1.0 | 0.00 | 0.00 | 0.00 | 48 | 1015.7 |
| 20260508011021 | 62 | 225 | 0.0 | 1.0 | 0.00 | 0.00 | 0.00 | 47 | 1015.0 |
| 20260508010521 | 62 | 224 | 0.0 | 1.0 | 0.00 | 0.00 | 0.00 | 46 | 1014.1 |
| 20260508010021 | 63 | 225 | 0.0 | 1.0 | 0.00 | 0.00 | 0.00 | 45 | 1013.5 |
| 20260508005521 | 63 | 224 | 0.0 | 1.0 | 0.00 | 0.00 | 0.00 | 44 | 1013.1 |
| 20260508005022 | 63 | 222 | 0.0 | 1.0 | 0.00 | 0.00 | 0.00 | 44 | 1013.2 |
| 20260508004602 | 63 | 221 | 1.0 | 1.0 | 0.00 | 0.00 | 0.00 | 43 | 1012.7 |
| 20260508004022 | 64 | 212 | 1.0 | 3.0 | 0.00 | 0.00 | 0.00 | 42 | 1012.6 |
| 20260508003522 | 64 | 223 | 1.0 | 2.0 | 0.00 | 0.00 | 0.00 | 42 | 1012.3 |
| 20260508003022 | 64 | 220 | 1.0 | 3.0 | 0.00 | 0.00 | 0.00 | 42 | 1012.5 |
| 20260508002522 | 64 | 208 | 1.0 | 5.0 | 0.00 | 0.00 | 0.00 | 41 | 1012.0 |
| 20260508002042 | 64 | 212 | 1.0 | 6.0 | 0.00 | 0.00 | 0.00 | 41 | 1012.3 |
| 20260508001543 | 64 | 217 | 1.0 | 6.0 | 0.00 | 0.00 | 0.00 | 42 | 1012.5 |
| 20260508001024 | 65 | 214 | 2.0 | 6.0 | 0.00 | 0.00 | 0.00 | 40 | 1012.1 |
| 20260508000523 | 65 | 214 | 2.0 | 4.0 | 0.00 | 0.00 | 0.00 | 40 | 1011.8 |
| 20260508000027 | 65 | 212 | 2.0 | 7.0 | 0.00 | 0.00 | 0.00 | 40 | 1012.0 |
| 20260507235523 | 65 | 181 | 2.0 | 6.0 | 0.00 | 0.00 | 0.00 | 41 | 1012.2 |
| 20260507235022 | 65 | 212 | 2.0 | 6.0 | 0.00 | 0.00 | 0.00 | 41 | 1012.1 |
| 20260507234523 | 65 | 212 | 2.0 | 6.0 | 0.00 | 0.00 | 0.00 | 40 | 1012.0 |
| 20260507234023 | 66 | 227 | 2.0 | 4.0 | 0.00 | 0.00 | 0.00 | 40 | 1012.0 |
| 20260507233523 | 66 | 207 | 2.0 | 5.0 | 0.00 | 0.00 | 0.00 | 40 | 1012.1 |
| 20260507233024 | 66 | 220 | 2.0 | 7.0 | 0.00 | 0.00 | 0.00 | 40 | 1012.0 |
| 20260507232542 | 66 | 213 | 2.0 | 8.0 | 0.00 | 0.00 | 0.00 | 40 | 1012.0 |
| 20260507232020 | 66 | 215 | 2.0 | 4.0 | 0.00 | 0.00 | 0.00 | 39 | 1011.9 |
| 20260507231520 | 66 | 211 | 2.0 | 5.0 | 0.00 | 0.00 | 0.00 | 39 | 1012.2 |
| 20260507231023 | 66 | 194 | 2.0 | 6.0 | 0.00 | 0.00 | 0.00 | 39 | 1011.9 |
| 20260507230523 | 66 | 205 | 2.0 | 4.0 | 0.00 | 0.00 | 0.00 | 40 | 1012.3 |
| 20260507230025 | 66 | 195 | 3.0 | 7.0 | 0.00 | 0.00 | 0.00 | 38 | 1011.9 |
| 20260507225526 | 66 | 219 | 2.0 | 4.0 | 0.00 | 0.00 | 0.00 | 39 | 1012.1 |
| 20260507225024 | 67 | 200 | 2.0 | 5.0 | 0.00 | 0.00 | 0.00 | 39 | 1012.1 |
| 20260507224523 | 67 | 204 | 2.0 | 5.0 | 0.00 | 0.00 | 0.00 | 38 | 1011.9 |
| 20260507224021 | 67 | 213 | 2.0 | 5.0 | 0.00 | 0.00 | 0.00 | 39 | 1012.3 |
| 20260507223521 | 67 | 185 | 3.0 | 6.0 | 0.00 | 0.00 | 0.00 | 39 | 1012.2 |
| 20260507223023 | 67 | 188 | 3.0 | 7.0 | 0.00 | 0.00 | 0.00 | 39 | 1012.1 |
| 20260507222521 | 67 | 214 | 2.0 | 6.0 | 0.00 | 0.00 | 0.00 | 38 | 1012.1 |
| 20260507222021 | 67 | 226 | 2.0 | 4.0 | 0.00 | 0.00 | 0.00 | 39 | 1012.1 |
| 20260507221521 | 67 | 209 | 3.0 | 9.0 | 0.00 | 0.00 | 0.00 | 39 | 1012.3 |
| 20260507221025 | 68 | 220 | 2.0 | 6.0 | 0.00 | 0.00 | 0.00 | 39 | 1012.2 |
| 20260507220521 | 68 | 201 | 2.0 | 5.0 | 0.00 | 0.00 | 0.00 | 38 | 1012.2 |
| 20260507220041 | 68 | 198 | 2.0 | 5.0 | 0.00 | 0.00 | 0.00 | 37 | 1012.0 |
| 20260507215521 | 69 | 204 | 2.0 | 4.0 | 0.00 | 0.00 | 0.00 | 37 | 1011.9 |
| 20260507215022 | 69 | 196 | 2.0 | 5.0 | 0.00 | 0.00 | 0.00 | 37 | 1012.1 |
| 20260507214522 | 68 | 320 | 2.0 | 6.0 | 0.00 | 0.00 | 0.00 | 37 | 1012.0 |
| 20260507214025 | 68 | 227 | 2.0 | 6.0 | 0.00 | 0.00 | 0.00 | 37 | 1012.1 |
| 20260507213522 | 68 | 220 | 2.0 | 5.0 | 0.00 | 0.00 | 0.00 | 39 | 1012.4 |
| 20260507213043 | 67 | 231 | 2.0 | 6.0 | 0.00 | 0.00 | 0.00 | 39 | 1012.4 |
| 20260507212543 | 67 | 214 | 3.0 | 8.0 | 0.00 | 0.00 | 0.00 | 39 | 1012.2 |
| 20260507212022 | 67 | 217 | 2.0 | 5.0 | 0.00 | 0.00 | 0.00 | 37 | 1012.1 |
| 20260507211524 | 68 | 211 | 2.0 | 4.0 | 0.00 | 0.00 | 0.00 | 38 | 1012.3 |
| 20260507211023 | 68 | 188 | 2.0 | 6.0 | 0.00 | 0.00 | 0.00 | 39 | 1012.5 |
| 20260507210525 | 67 | 214 | 2.0 | 4.0 | 0.00 | 0.00 | 0.00 | 38 | 1012.4 |
| 20260507210022 | 67 | 207 | 3.0 | 6.0 | 0.00 | 0.00 | 0.00 | 38 | 1012.6 |
| 20260507205523 | 67 | 199 | 2.0 | 6.0 | 0.00 | 0.00 | 0.00 | 38 | 1012.3 |
| 20260507205025 | 67 | 212 | 3.0 | 8.0 | 0.00 | 0.00 | 0.00 | 39 | 1012.9 |
| 20260507204522 | 67 | 181 | 3.0 | 7.0 | 0.00 | 0.00 | 0.00 | 38 | 1012.8 |
| 20260507204103 | 66 | 208 | 3.0 | 6.0 | 0.00 | 0.00 | 0.00 | 38 | 1012.8 |
| 20260507203523 | 66 | 187 | 3.0 | 6.0 | 0.00 | 0.00 | 0.00 | 38 | 1013.0 |
| 20260507203102 | 66 | 262 | 3.0 | 8.0 | 0.00 | 0.00 | 0.00 | 40 | 1013.1 |
| 20260507202520 | 67 | 206 | 3.0 | 11.0 | 0.00 | 0.00 | 0.00 | 38 | 1012.8 |
| 20260507202024 | 67 | 198 | 3.0 | 7.0 | 0.00 | 0.00 | 0.00 | 40 | 1013.3 |
| 20260507201522 | 67 | 244 | 3.0 | 8.0 | 0.00 | 0.00 | 0.00 | 40 | 1013.2 |
| 20260507201026 | 67 | 218 | 3.0 | 6.0 | 0.00 | 0.00 | 0.00 | 40 | 1013.4 |
| 20260507200525 | 66 | 206 | 2.0 | 7.0 | 0.00 | 0.00 | 0.00 | 40 | 1013.3 |
| 20260507200024 | 66 | 214 | 3.0 | 12.0 | 0.00 | 0.00 | 0.00 | 38 | 1013.1 |
| 20260507195522 | 67 | 208 | 2.0 | 6.0 | 0.00 | 0.00 | 0.00 | 39 | 1013.3 |
| 20260507195041 | 67 | 218 | 2.0 | 4.0 | 0.00 | 0.00 | 0.00 | 38 | 1013.0 |
| 20260507194601 | 67 | 229 | 3.0 | 7.0 | 0.00 | 0.00 | 0.00 | 38 | 1013.2 |
| 20260507194021 | 67 | 218 | 2.0 | 6.0 | 0.00 | 0.00 | 0.00 | 38 | 1013.1 |
| 20260507193601 | 67 | 203 | 2.0 | 5.0 | 0.00 | 0.00 | 0.00 | 40 | 1013.8 |
| 20260507193021 | 67 | 202 | 2.0 | 5.0 | 0.00 | 0.00 | 0.00 | 39 | 1013.3 |
| 20260507192541 | 67 | 255 | 2.0 | 6.0 | 0.00 | 0.00 | 0.00 | 39 | 1013.4 |
| 20260507192025 | 67 | 300 | 3.0 | 7.0 | 0.00 | 0.00 | 0.00 | 38 | 1013.5 |
| 20260507191524 | 67 | 209 | 3.0 | 9.0 | 0.00 | 0.00 | 0.00 | 39 | 1013.4 |
| 20260507191022 | 67 | 173 | 3.0 | 7.0 | 0.00 | 0.00 | 0.00 | 39 | 1013.3 |
| 20260507190522 | 66 | 209 | 2.0 | 6.0 | 0.00 | 0.00 | 0.00 | 39 | 1013.5 |
| 20260507190022 | 66 | 210 | 3.0 | 8.0 | 0.00 | 0.00 | 0.00 | 39 | 1013.5 |
| 20260507185522 | 66 | 215 | 3.0 | 8.0 | 0.00 | 0.00 | 0.00 | 39 | 1013.6 |
| 20260507185021 | 66 | 207 | 3.0 | 9.0 | 0.00 | 0.00 | 0.00 | 40 | 1013.9 |
| 20260507184545 | 66 | 196 | 2.0 | 5.0 | 0.00 | 0.00 | 0.00 | 39 | 1013.5 |
| 20260507184042 | 67 | 220 | 3.0 | 7.0 | 0.00 | 0.00 | 0.00 | 39 | 1013.5 |
| 20260507183540 | 68 | 227 | 3.0 | 11.0 | 0.00 | 0.00 | 0.00 | 37 | 1013.2 |
| 20260507183100 | 67 | 248 | 2.0 | 7.0 | 0.00 | 0.00 | 0.00 | 39 | 1013.7 |
| 20260507182520 | 68 | 129 | 2.0 | 7.0 | 0.00 | 0.00 | 0.00 | 37 | 1013.4 |
| 20260507182022 | 68 | 214 | 2.0 | 8.0 | 0.00 | 0.00 | 0.00 | 37 | 1013.4 |
| 20260507181525 | 69 | 228 | 3.0 | 11.0 | 0.00 | 0.00 | 0.00 | 36 | 1013.5 |
| 20260507181023 | 68 | 286 | 3.0 | 10.0 | 0.00 | 0.00 | 0.00 | 36 | 1013.3 |
| 20260507180526 | 68 | 272 | 2.0 | 11.0 | 0.00 | 0.00 | 0.00 | 36 | 1013.6 |
| 20260507180023 | 67 | 312 | 2.0 | 8.0 | 0.00 | 0.00 | 0.00 | 38 | 1013.7 |
| 20260507175522 | 66 | 225 | 3.0 | 7.0 | 0.00 | 0.00 | 0.00 | 39 | 1013.9 |
| 20260507175021 | 67 | 217 | 3.0 | 11.0 | 0.00 | 0.00 | 0.00 | 40 | 1014.1 |
| 20260507174522 | 67 | 202 | 3.0 | 8.0 | 0.00 | 0.00 | 0.00 | 40 | 1014.1 |
| 20260507174022 | 67 | 210 | 2.0 | 6.0 | 0.00 | 0.00 | 0.00 | 39 | 1014.1 |
| 20260507173520 | 68 | 217 | 3.0 | 12.0 | 0.00 | 0.00 | 0.00 | 37 | 1013.9 |
| 20260507173020 | 67 | 331 | 2.0 | 8.0 | 0.00 | 0.00 | 0.00 | 36 | 1013.6 |
| 20260507172520 | 66 | 314 | 3.0 | 9.0 | 0.00 | 0.00 | 0.00 | 36 | 1013.7 |